Location: Antist
(43.1184°N, 0.1270°E)
Time: 02:24:29
(UTC+00:00)

Cosmos 1727 Rocket - Pass Details

Date: 19 January 2020
Orbit: 960 x 997 km, 82.9° (Epoch: 22 February)

Event Time Altitude Azimuth Distance (km) Brightness Sun altitude
Rises 18:28:50 0° 359° (N) 3,669 6.9 -17.0°
Reaches altitude 10° 18:31:35 10° 8° (N) 2,714 6.1 -17.5°
Maximum altitude 18:37:15 36° 74° (ENE) 1,479 4.4 -18.6°
Drops below altitude 10° 18:42:51 10° 140° (SE) 2,688 6.0 -19.6°
Sets 18:45:33 0° 148° (SSE) 3,630 6.8 -20.0°
